Regional Weather Roundup
Issued by NWS Newport/Morehead, NC

Current Version | Previous Version | Graphics & Text | Print | Product List | Glossary Off
Versions: 1 2 3 4 5 6 7 8 9 10 11 12 13 14 15 16 17 18 19 20 21 22 23 24 25 26 27 28 29 30 31 32 33 34 35 36 37 38 39 40 41 42 43 44 45 46 47 48 49 50

000
ASUS42 KMHX 251224
RWRMHX
WEATHER ROUNDUP FOR EASTERN NORTH CAROLINA
NATIONAL WEATHER SERVICE NEWPORT/MOREHEAD CITY NC
800 AM EDT SAT APR 25 2015

NOTE: "FAIR" INDICATES FEW OR NO CLOUDS BELOW 12,000 FEET
WITH NO SIGNIFICANT WEATHER AND/OR OBSTRUCTIONS TO VISIBILITY

NCZ015>017-031-032-045>047-102-103-251300-
NORTH COAST

CITY           SKY/WX    TMP DP  RH WIND       PRES   REMARKS
EDENTON        CLOUDY    50  46  88 CALM      29.93F
ELIZABETH CITY PTSUNNY   54  44  69 E6        29.94S
KITTY HAWK     PTSUNNY   53  44  70 E3        29.93S
MANTEO         PTSUNNY   55  39  56 E6        29.94F

$$

NCZ045>047-081-094-103-104-251300-
CENTRAL COAST

CITY           SKY/WX    TMP DP  RH WIND       PRES   REMARKS
FRISCO         SUNNY     59  51  75 W9        29.94R
SWANQUARTER      N/A     54 N/A N/A VRB1      29.91S

$$

NCZ095-097-098-100-101-251300-
SOUTHERN COAST

CITY           SKY/WX    TMP DP  RH WIND       PRES   REMARKS
BEAUFORT       MOSUNNY   62  57  83 SW5       29.92F
CEDAR ISLAND     N/A     63 N/A N/A SW3G14    29.94F
JACKSONVILLE   CLOUDY    54  49  83 W3        29.92F
PINEY ISLAND   PTSUNNY  N/A N/A N/A SW8       29.93S
WILMINGTON     CLOUDY    57  53  86 CALM      29.94S


$$

NCZ011>013-027>030-043-044-078>080-089-090>093-098-251300-
COASTAL PLAIN

CITY           SKY/WX    TMP DP  RH WIND       PRES   REMARKS
AHOSKIE        PTSUNNY   47  42  85 CALM      29.94S
CLINTON        CLOUDY    55  49  82 CALM      29.93F
ELIZABETHTOWN  CLOUDY    60  48  66 S6        29.91F
GOLDSBORO      CLOUDY    54  48  79 CALM      29.90F
GREENVILLE     PTSUNNY   54  45  71 CALM      29.95F
HAVELOCK       MOSUNNY   53  50  89 SW3       29.94S
KENANSVILLE    CLOUDY    52  47  85 CALM      29.93F
KINSTON        CLOUDY    52  46  82 CALM      29.94S
NEW BERN       MOSUNNY   54  46  74 SW7       29.94F
RICHLANDS      CLOUDY    54  46  76 SW5       29.94S
ROCKY MOUNT    CLOUDY    50  45  83 CALM      29.93F
WASHINGTON     PTSUNNY   51  45  79 CALM      29.94S
WHITEVILLE     CLOUDY    58  51  76 SW6       29.93S

$$

AMZ130-135-150-152-154-156-158-170-250-252-270-ANZ085-086-088-633-658-670-251300-
MARINE OBSERVATIONS

STATION/POSITION TIME  TEMP    WIND        PRES    WAVE   SWELL
                       AIR SEA DIR/SP/G            HT/PER HT/PER
                 (UTC) (F)     (DEG/KT/KT) (MB)    (FT/S) (FT/S)
CHESAPEAKE LIGHT 1200   50      50/ 14/ 14 1014.3
64 E VA BEACH    1150   57 60  350/  8/ 10 1013.6    2/ 6   2/ 6
DUCK             1200   55 55  100/  6/  6 1012.7
2 E DUCK         1111      54                N/A     2/13   2/13
10 NE DUCK       NOT AVBL
OREGON INLET     1200   54 56   60/  5/  7 1013.5
HATTERAS CG      1112   61 66  240/  8/ 14 1013.2
DIAMOND BUOY     1150   65 69  260/ 16/ 19 1013.7    4/ 9   3/ 9
CAPE LOOKOUT     1200   65     250/  5/  7 1013.1
BEAUFORT LAB     1112   62 64  250/  2/  3 1012.8
27 SE WRIGHTSVLE 1200   65 70  240/ 16/ 16   N/A
5 SE WRIGHTSVLE  1108   65 65  220/ 10/ 16 1013.7
225 S CAPE HAT   1150   64 70  160/  2/  4 1017.0    6/10   7/10
41 SE CHARLESTON 1150   71 71  170/ 10/ 12 1013.9    2/ 8   2/ 8

$$


USA.gov is the U.S. government's official web portal to all federal, state and local government web resources and services.